Weather History for Estherville, IA

Change the Weather History Date:

Friday, December 6, 2013

  Actual Average Record
Temperature  
Mean Temperature 0 °F 22 °F  
Max Temperature 5 °F 31 °F 54 °F (1963)
Min Temperature -6 °F 13 °F -18 °F (1972)
Degree Days  
Heating Degree Days 65 43  
Month to date heating degree days 266 252  
Since 1 July heating degree days 1919 1971  
Cooling Degree Days 0 0  
Month to date cooling degree days 0 0  
Year to date cooling degree days 712 593  
Moisture  
Dew Point -9 °F    
Average Humidity 74    
Maximum Humidity 79    
Minimum Humidity 68    
Precipitation  
Precipitation 0.00 in 0.04 in 0.26 in (1948)
Month to date precipitation 0.06 0.29  
Sea Level Pressure  
Sea Level Pressure 30.60 in    
Wind  
Wind Speed 13 mph (WNW)    
Max Wind Speed 18 mph    
Max Gust Speed 22 mph    
Visibility 10 miles    
Events      
T = Trace of Precipitation, MM = Missing Value Source: NWS Daily Summary

Daily Weather History Graph

Daily Weather History Graph

Search for Another Location

Airport:

Trip Planner

Search our weather history database for the weather conditions in past years. The results will help you decide how hot, cold, wet, or windy it might be!

Date:

Astronomy

Dec. 06, 2013 Rise Set
Actual Time 7:37 AM CST 4:43 PM CST
Civil Twilight 7:04 AM CST 5:15 PM CST
Nautical Twilight 6:29 AM CST 5:51 PM CST
Astronomical Twilight 5:54 AM CST 6:25 PM CST
Moon 10:39 AM CST (12/6) 9:20 PM CST (12/6)
Length of Visible Light 10h 10m
Length of Day
9h 05m
Waxing Crescent, 19% of the Moon is Illuminated
Dec 6
Waxing Crescent
Dec 9
First Quarter
Dec 17
Full
Dec 25
Last Quarter
Jan 1
New

Hourly Weather History & Observations

Time (CST) Temp. Windchill Dew Point Humidity Pressure Visibility Wind Dir Wind Speed Gust Speed Precip Events Conditions
12:52 AM -2.0 °F -19.6 °F -8.0 °F 76% 30.45 in 10.0 mi NW 11.5 mph - N/A   Clear
1:52 AM -2.9 °F -23.1 °F -9.0 °F 75% 30.45 in 10.0 mi WNW 15.0 mph - N/A   Clear
2:52 AM -4.0 °F -23.7 °F -9.9 °F 76% 30.46 in 10.0 mi WNW 13.8 mph - N/A   Clear
3:52 AM -5.1 °F -23.5 °F -11.0 °F 76% 30.47 in 10.0 mi WNW 11.5 mph - N/A   Clear
4:52 AM -5.1 °F -23.5 °F -11.0 °F 76% 30.50 in 10.0 mi WNW 11.5 mph - N/A   Clear
5:52 AM -5.1 °F -24.3 °F -11.9 °F 72% 30.52 in 10.0 mi WNW 12.7 mph - N/A   Clear
6:52 AM -6.0 °F -23.6 °F -11.9 °F 75% 30.55 in 10.0 mi WNW 10.4 mph - N/A   Clear
7:52 AM -6.0 °F -24.6 °F -11.9 °F 75% 30.57 in 10.0 mi WNW 11.5 mph - N/A   Clear
8:52 AM -4.0 °F -23.7 °F -9.9 °F 76% 30.57 in 10.0 mi WNW 13.8 mph - N/A   Clear
9:52 AM -0.9 °F -18.3 °F -8.0 °F 72% 30.60 in 10.0 mi NW 11.5 mph - N/A   Clear
10:52 AM 1.0 °F -15.8 °F -6.0 °F 72% 30.61 in 10.0 mi NNW 11.5 mph - N/A   Clear
11:52 AM 3.0 °F -14.1 °F -4.0 °F 73% 30.60 in 10.0 mi WNW 12.7 mph - N/A   Clear
12:52 PM 3.9 °F -14.3 °F -4.0 °F 70% 30.59 in 10.0 mi NW 15.0 mph - N/A   Clear
1:52 PM 5.0 °F -12.3 °F -4.0 °F 66% 30.59 in 10.0 mi WNW 13.8 mph - N/A   Clear
2:52 PM 3.9 °F -14.3 °F -5.1 °F 66% 30.60 in 10.0 mi NW 15.0 mph - N/A   Clear
3:52 PM 3.0 °F -14.8 °F -5.1 °F 69% 30.62 in 10.0 mi WNW 13.8 mph - N/A   Clear
4:52 PM -0.0 °F -18.0 °F -8.0 °F 69% 30.63 in 10.0 mi NW 12.7 mph - N/A   Clear
5:52 PM -2.0 °F -20.5 °F -8.0 °F 76% 30.65 in 10.0 mi NW 12.7 mph - N/A   Clear
6:52 PM -2.9 °F -22.4 °F -9.0 °F 75% 30.67 in 10.0 mi WNW 13.8 mph - N/A   Clear
7:52 PM -2.9 °F -18.8 °F -9.0 °F 75% 30.69 in 10.0 mi WNW 9.2 mph - N/A   Clear
8:52 PM -4.0 °F -23.0 °F -9.9 °F 76% 30.71 in 10.0 mi WNW 12.7 mph - N/A   Clear
9:52 PM -4.0 °F -23.7 °F -11.0 °F 72% 30.71 in 10.0 mi NW 13.8 mph - N/A   Clear
10:52 PM -5.1 °F -22.5 °F -11.0 °F 76% 30.74 in 10.0 mi WNW 10.4 mph - N/A   Clear
11:52 PM -6.0 °F -22.6 °F -11.9 °F 75% 30.75 in 10.0 mi WNW 9.2 mph - N/A   Clear